Погода в Битлисе

Турция     38°23′53″N   42°06′25″E
темп.,
°C
ветер,
м/с
пор.,
м/с
влажн.,
%
обл.,
%
осадки,
мм/ч
давл.,
гПа
погр.,
м
12 мая, ср
ср1200:00+9ююв22450 0.0 101312
03:00+8ююв22360 0.0 101311
06:00+9юв22380 0.0 101414
09:00+16ююз58300 0.0 10121580
12:00+19ююз611267 0.0 10122172
15:00+19ююз5103024 0.0 10122472
18:00+17зюз114570 0.0 101111
21:00+13вюв224358 0.0 101311
13 мая, чт
чт1300:00+12вюв22465 0.0 101312
03:00+11в22481 0.0 101312
06:00+11в22616 0.0 101522
09:00+19ю27350 0.0 10131470
12:00+22ююз58295 0.0 10133010
15:00+21зюз57274 0.0 10122392
18:00+19зсз11420 0.0 101212
21:00+12в33570 0.0 101638
14 мая, пт
пт1400:00+11в33710 0.0 101634
03:00+10в33710 0.0 101631
06:00+10всв22740 0.0 101723
09:00+17ссв22510 0.0 1015472
12:00+21ссз22330 0.0 10141946
15:00+22ссз32302 0.0 10122261
18:00+20с22450 0.0 101221
21:00+15вюв22390 0.0 101311
15 мая, сб
сб1500:00+11в43690 0.0 101547
03:00+11в32690 0.0 101423
06:00+11всв33760 0.0 101543
09:00+17ссв34491 0.0 1013582
12:00+21св33350 0.0 10111587
15:00+22всв22270 0.0 10092048
18:00+21ююв01400 0.0 100811
21:00+12вюв43600 0.0 101344
16 мая, вс
вс1600:00+11всв32754 0.0 101230
03:00+10всв22780 0.0 101220
06:00+11всв22750 0.0 101236
09:00+18св22533 0.0 1009497
12:00+23ююз462714 0.0 10073275
15:00+23ююз79278 0.0 10063035
18:00+19ююз48400 0.0 1006202
21:00+14юв334357 0.0 100916